Brooklyn Center, MN

6:45 AM CDT on September 25, 2016 (GMT -0500)
Crystal

Weather History for KMIC - April, 2014

Change the Weather History Date:

Thursday, April 10, 2014

  Actual Average Record
Temperature  
Mean Temperature 54 °F -  
Max Temperature 62 °F 52 °F 77 °F (2006)
Min Temperature 42 °F 33 °F 21 °F (2007)
Degree Days  
Heating Degree Days 12    
Growing Degree Days 4 (Base 50)    
Moisture  
Dew Point 27 °F    
Average Humidity 38    
Maximum Humidity 59    
Minimum Humidity 17    
Precipitation  
Precipitation 0.00 in - - ()
Sea Level Pressure  
Sea Level Pressure 29.78 in    
Wind  
Wind Speed 15 mph (WNW)    
Max Wind Speed 24 mph    
Max Gust Speed 36 mph    
Visibility 10 miles    
Events Rain    
Averages and records for this station are not official NWS values.
T = Trace of Precipitation, MM = Missing Value Source: NWS Daily Summary

Daily Weather History Graph

Daily Weather History Graph

Search for Another Location

Airport or City:

Trip Planner

Search our weather history database for the weather conditions in past years. The results will help you decide how hot, cold, wet, or windy it might be!

Date:

Astronomy

Apr. 10, 2014 Rise Set
Actual Time 6:37 AM CDT 7:52 PM CDT
Civil Twilight 6:07 AM CDT 8:23 PM CDT
Nautical Twilight 5:30 AM CDT 8:59 PM CDT
Astronomical Twilight 4:52 AM CDT 9:38 PM CDT
Moon 3:26 PM CDT (4/10) 4:12 AM CDT (4/10)
Length of Visible Light 14h 15m
Length of Day
13h 15m
Waxing Gibbous, 80% of the Moon is Illuminated
Apr 10
Waxing Gibbous
Apr 15
Full
Apr 22
Last Quarter
Apr 29
New
May 6
First Quarter

Hourly Weather History & Observations

Time (CDT) Temp. Windchill Dew Point Humidity Pressure Visibility Wind Dir Wind Speed Gust Speed Precip Events Conditions
12:53 AM 62.1 °F - 41.0 °F 46% 29.54 in 10.0 mi WNW 16.1 mph - 0.00 in   Mostly Cloudy
1:53 AM 57.0 °F - 37.9 °F 49% 29.61 in 10.0 mi NW 18.4 mph 25.3 mph 0.00 in Rain Light Rain
2:53 AM 53.1 °F - 39.0 °F 59% 29.63 in 10.0 mi NNW 16.1 mph - 0.00 in   Mostly Cloudy
3:53 AM 51.1 °F - 35.1 °F 54% 29.63 in 10.0 mi North 10.4 mph - 0.00 in Rain Light Rain
4:53 AM 50.0 °F - 32.0 °F 50% 29.67 in 10.0 mi NW 13.8 mph - 0.00 in   Overcast
5:53 AM 48.0 °F - 30.9 °F 52% 29.70 in 10.0 mi WNW 9.2 mph - N/A   Clear
6:53 AM 45.0 °F 40.6 °F 30.0 °F 56% 29.71 in 10.0 mi WNW 8.1 mph - N/A   Clear
7:53 AM 46.9 °F - 28.9 °F 50% 29.75 in 10.0 mi West 11.5 mph - N/A   Clear
9:53 AM 53.1 °F - 28.0 °F 38% 29.76 in 10.0 mi West 11.5 mph - N/A   Clear
10:53 AM 55.9 °F - 25.0 °F 30% 29.78 in 10.0 mi WNW 20.7 mph 26.5 mph N/A   Clear
11:53 AM 57.9 °F - 21.0 °F 24% 29.79 in 10.0 mi West 20.7 mph 32.2 mph N/A   Clear
12:53 PM 59.0 °F - 21.0 °F 23% 29.80 in 10.0 mi West 21.9 mph 34.5 mph N/A   Clear
1:53 PM 60.1 °F - 17.1 °F 19% 29.81 in 10.0 mi NW 21.9 mph 35.7 mph N/A   Clear
2:53 PM 61.0 °F - 18.0 °F 19% 29.82 in 10.0 mi NW 16.1 mph 28.8 mph N/A   Clear
3:53 PM 61.0 °F - 16.0 °F 17% 29.83 in 10.0 mi WNW 19.6 mph 31.1 mph N/A   Clear
4:53 PM 60.1 °F - 19.9 °F 21% 29.83 in 10.0 mi WNW 24.2 mph 34.5 mph N/A   Clear
5:53 PM 59.0 °F - 21.9 °F 24% 29.85 in 10.0 mi WNW 18.4 mph 25.3 mph N/A   Clear
6:53 PM 57.9 °F - 23.0 °F 26% 29.86 in 10.0 mi WNW 15.0 mph 25.3 mph N/A   Clear
7:53 PM 55.0 °F - 24.1 °F 30% 29.87 in 10.0 mi WNW 10.4 mph - N/A   Clear
8:53 PM 51.1 °F - 25.0 °F 36% 29.91 in 10.0 mi West 5.8 mph - N/A   Clear
9:53 PM 50.0 °F - 26.1 °F 39% 29.92 in 10.0 mi West 4.6 mph - N/A   Clear
10:53 PM 46.0 °F - 26.1 °F 46% 29.93 in 10.0 mi Calm Calm - N/A   Clear
11:53 PM 42.1 °F - 27.0 °F 55% 29.93 in 10.0 mi Calm Calm - N/A   Clear